[[{"header":{"parameterUnit":"m.s-1","parameterCategory":1,"la1":30.2991,"la2":30.254,"lo1":-89.0895,"lo2":-89.0444,"dy":0.0017,"dx":0.0017,"nx":28,"ny":28,"refTime":"2025-11-29T09:00:00:Z","depth":0,"parameterNumber":2,"parameterNumberName":"U-component_of_WINDS"},"data":[0,0,0,0,0,0,0,0,0,0,0,0,0,0,0,0,0,0,0,0,0,0,0,0,0,0,0,0,0,0,0,0,0,0,0,0,0,0,0,0,0,0,0,0,0,0,0,0,0,0,0,0,0,0,0,0,0,0,-3.3221,-3.3221,0,-3.326,-3.3261,-3.3261,-3.3178,-3.3175,-3.3172,-3.317,-3.321,-3.3213,-3.3217,0,0,0,0,0,0,0,0,0,0,0,0,0,-3.3072,-3.3075,-3.3221,-3.3221,-3.3222,-3.326,-3.3261,-3.3261,-3.3178,-3.3175,-3.3171,-3.3168,-3.3209,-3.3213,-3.3217,0,0,0,0,0,0,0,0,0,0,0,0,0,-3.3127,-3.3076,-3.3221,-3.3185,-3.3182,-3.326,-3.3261,-3.3262,-3.3179,-3.3175,-3.3171,-3.3167,-3.3207,-3.3212,-3.3218,-3.3332,0,0,-3.3234,-3.3237,0,0,0,0,0,0,0,0,-3.3124,-3.3132,-3.319,-3.3187,-3.3184,-3.321,-3.3223,-3.3285,-3.318,-3.318,-3.317,-3.3165,-3.3213,-3.3218,-3.3234,-3.3334,-3.3336,-3.3235,-3.3238,-3.324,-3.3242,0,0,0,0,0,0,0,-3.312,-3.313,-3.3236,-3.3191,-3.3187,-3.3166,-3.317,-3.3234,-3.3219,-3.318,-3.3174,-3.318,-3.3211,-3.3229,-3.3234,-3.3337,-3.3235,-3.3239,-3.3243,-3.3245,-3.3533,-3.3537,0,0,0,0,0,0,-3.3121,-3.3128,-3.3235,-3.3238,-3.3143,-3.3172,-3.3176,-3.3206,-3.3218,-3.3216,-3.3183,-3.3176,-3.3222,-3.3228,-3.3236,-3.3371,-3.324,-3.3245,-3.3248,-3.3529,-3.3534,-3.3539,0,0,0,0,0,0,-3.3118,-3.3131,-3.3233,-3.3181,-3.3192,-3.3179,-3.3213,-3.3209,-3.3227,-3.322,-3.3217,-3.3205,-3.3219,-3.3228,-3.3309,-3.3371,-3.3248,-3.3253,-3.3523,-3.353,-3.3536,-3.3643,0,0,0,0,0,0,-3.3114,-3.3131,-3.3175,-3.3183,-3.3196,-3.3307,-3.3217,-3.3212,-3.3236,-3.3227,-3.324,-3.3238,-3.3216,-3.3301,-3.3314,-3.3376,-3.3257,-3.3518,-3.3526,-3.3534,-3.3634,-3.3653,-3.3668,0,0,0,0,0,-3.3109,-3.3203,-3.3177,-3.3191,-3.325,-3.3311,-3.3318,-3.3292,-3.3242,-3.3286,-3.3281,-3.3238,-3.3362,-3.331,-3.3324,-3.3389,-3.3514,-3.3524,-3.3534,-3.3626,-3.3649,-3.3668,0,0,0,0,0,0,-3.3203,-3.3203,-3.3175,-3.3274,-3.3293,-3.3297,-3.3351,-3.3316,-3.335,-3.334,-3.3305,-3.3308,-3.3396,-3.34,-3.3343,-3.3501,-3.3429,-3.3443,-3.3495,-3.3517,-3.3533,-3.3531,-3.3261,0,0,0,0,0,-3.3235,-3.3284,-3.3282,-3.337,-3.3381,-3.3365,-3.339,-3.3368,-3.3386,-3.3394,-3.3395,-3.3414,-3.3458,-3.3487,-3.3526,-3.3633,-3.3635,-3.3685,-3.3702,-3.3716,-3.3728,-3.3786,-3.3808,-3.3571,-3.3571,-3.3571,0,0,-3.3302,-3.3308,-3.3342,-3.3389,-3.3401,-3.3453,-3.3372,-3.343,-3.3469,-3.3402,-3.3479,-3.3481,-3.35,-3.3595,-3.3637,-3.3601,-3.3794,-3.3729,-3.374,-3.3745,-3.3798,-3.3821,-3.384,-3.3578,-3.3577,-3.3576,0,0,-3.3451,-3.346,-3.3535,-3.3549,-3.3568,-3.3556,-3.3574,-3.3583,-3.3582,-3.3658,-3.361,-3.3654,-3.373,-3.3745,-3.3763,-3.3918,-3.3879,-3.3931,-3.4022,-3.4078,-3.4097,-3.4113,-3.4169,-3.4189,-3.3943,-3.3943,-3.3944,0,-3.3532,-3.3609,-3.3577,-3.364,-3.3662,-3.3604,-3.3679,-3.3694,-3.3725,-3.3742,-3.3701,-3.3794,-3.3803,-3.3901,-3.3938,-3.3954,-3.3974,-3.393,-3.4096,-3.4113,-3.4127,-3.418,-3.4201,-3.395,-3.3949,-3.3948,-3.3948,0,-3.3707,-3.3761,-3.3819,-3.3851,-3.388,-3.3948,-3.3927,-3.3959,-3.3934,-3.3927,-3.4006,-3.4014,-3.4054,-3.4075,-3.4051,-3.417,-3.4147,-3.4102,-3.403,-3.4157,-3.4206,-3.4226,-3.3959,-3.3956,-3.3955,-3.3953,0,0,-3.3918,-3.3931,-3.3953,-3.3967,-3.3984,-3.4025,-3.409,-3.413,-3.4158,-3.4181,-3.4236,-3.43,-3.4259,-3.4279,-3.4256,-3.4305,-3.4428,-3.4254,-3.4254,-3.4287,-3.456,-3.4595,-3.4619,-3.4401,-3.4405,-3.4408,-3.4558,0,-3.4066,-3.418,-3.4153,-3.4265,-3.4314,-3.426,-3.4316,-3.4333,-3.4327,-3.4368,-3.4362,-3.4409,-3.435,-3.4362,-3.4408,-3.4403,-3.4482,-3.4392,-3.4452,-3.4455,-3.4451,-3.4644,-3.4681,-3.4823,-3.4577,-3.458,-3.4583,0,-3.4255,-3.4286,-3.4403,-3.4411,-3.4431,-3.4483,-3.4517,-3.4557,-3.4574,-3.4566,-3.4589,-3.4556,-3.462,-3.4547,-3.4635,-3.4574,-3.4597,-3.4598,-3.4603,-3.4609,-3.4528,-3.4656,-3.4867,-3.4889,-3.4613,-3.461,-3.4608,0,-3.4399,-3.4469,-3.4548,-3.4561,-3.4573,-3.4611,-3.4617,-3.463,-3.4656,-3.4685,-3.4701,-3.4737,-3.4758,-3.4787,-3.4764,-3.4713,-3.4857,-3.4781,-3.4853,-3.4854,-3.4887,-3.4885,-3.5106,-3.49,-3.4899,-3.4899,-3.4898,0,-3.4568,-3.4642,-3.4613,-3.4662,-3.4742,-3.4711,-3.4792,-3.4792,-3.4804,-3.4851,-3.4805,-3.4851,-3.4818,-3.4861,-3.4844,-3.492,-3.4929,-3.4925,-3.492,-3.493,-3.4931,-3.4946,-3.4936,-3.4904,-3.4903,-3.4902,-3.4901,0,-3.4743,-3.4726,-3.4809,-3.4813,-3.4815,-3.4875,-3.4878,-3.4924,-3.4914,-3.4975,-3.4987,-3.4973,-3.5021,-3.5001,-3.5052,-3.504,-3.5138,-3.5119,-3.5133,-3.5129,-3.5202,-3.5196,-3.5441,-3.5471,-3.5244,-3.5246,-3.5248,0,-3.4853,-3.4908,-3.4918,-3.4947,-3.4957,-3.5004,-3.503,-3.5,-3.5029,-3.5052,-3.5095,-3.5138,-3.5172,-3.5251,-3.5245,-3.5283,-3.5266,-3.5349,-3.5271,-3.528,-3.5269,-3.5266,-3.5272,-3.5365,-3.5368,-3.537,-3.5372,0,-3.505,-3.5039,-3.5078,-3.5115,-3.5146,-3.5173,-3.5196,-3.5222,-3.5194,-3.5228,-3.5277,-3.5303,-3.5354,-3.5399,-3.5433,-3.5438,-3.5401,-3.5396,-3.5415,-3.5427,-3.5433,-3.5431,-3.5177,-3.5391,-3.5389,-3.5387,-3.5386,-3.5386,-3.5197,-3.5244,-3.5258,-3.5303,-3.5317,-3.534,-3.5383,-3.5379,-3.5419,-3.5459,-3.5438,-3.5495,-3.551,-3.5551,-3.5563,-3.5606,-3.5574,-3.5601,-3.5608,-3.5615,-3.5626,-3.5424,-3.5612,-3.5611,-3.5611,-3.561,-3.561,0,-3.5393,-3.5399,-3.5441,-3.5475,-3.551,-3.5471,-3.5494,-3.5526,-3.5577,-3.5594,-3.5628,-3.5684,-3.5726,-3.5723,-3.5762,-3.5798,-3.5781,-3.5809,-3.5807,-3.5809,-3.5652,-3.5632,-3.5822,-3.5822,-3.5822,-3.5822,-3.5821,-3.5821,-3.5499,-3.5577,-3.5568,-3.5652,-3.5657,-3.5713,-3.5729,-3.575,-3.5763,-3.5828,-3.5863,-3.5861,-3.587,-3.5909,-3.5946,-3.5944,-3.5961,-3.5996,-3.5987,-3.5841,-3.582,-3.58,-3.5782,-3.5999,-3.5999,-3.6141,-3.6142,-3.6143]},{"header":{"parameterUnit":"m.s-1","parameterCategory":1,"la1":30.2991,"la2":30.254,"lo1":-89.0895,"lo2":-89.0444,"dy":0.0017,"dx":0.0017,"nx":28,"ny":28,"refTime":"2025-11-29T09:00:00:Z","depth":0,"parameterNumber":3,"parameterNumberName":"V-component_of_WINDS"},"data":[0,0,0,0,0,0,0,0,0,0,0,0,0,0,0,0,0,0,0,0,0,0,0,0,0,0,0,0,0,0,0,0,0,0,0,0,0,0,0,0,0,0,0,0,0,0,0,0,0,0,0,0,0,0,0,0,0,0,-5.3779,-5.3779,0,-5.3812,-5.3812,-5.3812,-5.3712,-5.3709,-5.3706,-5.3703,-5.3734,-5.3737,-5.3741,0,0,0,0,0,0,0,0,0,0,0,0,0,-5.3627,-5.3631,-5.3779,-5.3779,-5.378,-5.3812,-5.3812,-5.3813,-5.3713,-5.3709,-5.3705,-5.3702,-5.3733,-5.3737,-5.3741,0,0,0,0,0,0,0,0,0,0,0,0,0,-5.368,-5.3632,-5.3779,-5.3734,-5.373,-5.3812,-5.3812,-5.3813,-5.3713,-5.3709,-5.3704,-5.37,-5.3731,-5.3737,-5.3742,-5.3867,0,0,-5.3759,-5.3761,0,0,0,0,0,0,0,0,-5.3677,-5.3685,-5.374,-5.3737,-5.3733,-5.3753,-5.377,-5.3831,-5.3715,-5.372,-5.3703,-5.3698,-5.3744,-5.3748,-5.3764,-5.3869,-5.387,-5.3759,-5.3763,-5.3765,-5.3766,0,0,0,0,0,0,0,-5.3673,-5.3683,-5.3792,-5.3741,-5.3737,-5.3711,-5.3714,-5.3781,-5.3757,-5.3719,-5.3712,-5.3717,-5.3741,-5.3759,-5.3764,-5.3871,-5.3759,-5.3764,-5.3767,-5.377,-5.408,-5.4084,0,0,0,0,0,0,-5.3676,-5.3681,-5.3791,-5.3793,-5.3693,-5.3718,-5.372,-5.3751,-5.3756,-5.3752,-5.3721,-5.3712,-5.3752,-5.3758,-5.3765,-5.3912,-5.3765,-5.377,-5.3773,-5.4075,-5.4081,-5.4086,0,0,0,0,0,0,-5.3673,-5.3687,-5.3789,-5.3735,-5.3746,-5.3725,-5.3761,-5.3754,-5.3772,-5.3758,-5.3752,-5.3744,-5.3749,-5.3757,-5.3843,-5.3912,-5.3773,-5.3778,-5.4069,-5.4077,-5.4084,-5.4208,0,0,0,0,0,0,-5.3669,-5.3686,-5.3735,-5.3737,-5.375,-5.3868,-5.3765,-5.3758,-5.3782,-5.3771,-5.3778,-5.3774,-5.3746,-5.3835,-5.3848,-5.3917,-5.3782,-5.4063,-5.4072,-5.4081,-5.4197,-5.4219,-5.4237,0,0,0,0,0,-5.3664,-5.3768,-5.3738,-5.3751,-5.381,-5.3873,-5.388,-5.3845,-5.3788,-5.3836,-5.3827,-5.3774,-5.3902,-5.3845,-5.3859,-5.393,-5.4058,-5.407,-5.408,-5.4189,-5.4214,-5.4236,0,0,0,0,0,0,-5.3773,-5.3767,-5.3734,-5.3841,-5.3858,-5.3855,-5.3915,-5.3873,-5.3906,-5.3894,-5.3849,-5.3851,-5.3945,-5.3946,-5.3882,-5.4051,-5.397,-5.3985,-5.4048,-5.4072,-5.4091,-5.4089,-5.3786,0,0,0,0,0,-5.381,-5.3862,-5.3854,-5.395,-5.396,-5.3936,-5.3962,-5.3934,-5.395,-5.3956,-5.3953,-5.3969,-5.4012,-5.4042,-5.4081,-5.4197,-5.4197,-5.4253,-5.4272,-5.4288,-5.4301,-5.4362,-5.4387,-5.4123,-5.4123,-5.4122,0,0,-5.3886,-5.3889,-5.3925,-5.3972,-5.3981,-5.4036,-5.3943,-5.4005,-5.4044,-5.3965,-5.4046,-5.4045,-5.4059,-5.4161,-5.4205,-5.4164,-5.4374,-5.4302,-5.4316,-5.432,-5.4376,-5.4401,-5.4424,-5.413,-5.4129,-5.4128,0,0,-5.4052,-5.406,-5.4141,-5.4153,-5.4169,-5.4153,-5.4173,-5.4176,-5.4172,-5.4253,-5.4195,-5.4241,-5.4317,-5.433,-5.4347,-5.4519,-5.4472,-5.4533,-5.4635,-5.4695,-5.4716,-5.4734,-5.4795,-5.4818,-5.4546,-5.4546,-5.4546,0,-5.4144,-5.4225,-5.4187,-5.4254,-5.4276,-5.4207,-5.4288,-5.4301,-5.4329,-5.4346,-5.4299,-5.4394,-5.4399,-5.4503,-5.4545,-5.456,-5.4581,-5.4532,-5.4716,-5.4734,-5.475,-5.4808,-5.4832,-5.4553,-5.4552,-5.4552,-5.4551,0,-5.4338,-5.4395,-5.4458,-5.4488,-5.4517,-5.4591,-5.4563,-5.4596,-5.4566,-5.4554,-5.4637,-5.4641,-5.468,-5.4702,-5.4673,-5.4802,-5.4776,-5.4724,-5.4641,-5.4784,-5.4837,-5.4859,-5.4564,-5.4561,-5.4559,-5.4557,0,0,-5.4574,-5.4583,-5.4606,-5.4619,-5.4633,-5.4676,-5.4745,-5.4784,-5.4814,-5.4836,-5.4893,-5.4959,-5.4911,-5.493,-5.4901,-5.4954,-5.509,-5.4895,-5.4894,-5.4931,-5.5232,-5.5272,-5.5298,-5.5059,-5.5063,-5.5066,-5.5231,0,-5.4738,-5.4859,-5.4827,-5.4947,-5.4999,-5.4935,-5.4995,-5.501,-5.5001,-5.5042,-5.5031,-5.5079,-5.5012,-5.5023,-5.5073,-5.5063,-5.515,-5.505,-5.5111,-5.5113,-5.511,-5.5326,-5.5368,-5.5524,-5.5252,-5.5255,-5.5258,0,-5.4946,-5.4977,-5.5103,-5.5108,-5.5129,-5.5184,-5.5217,-5.5258,-5.5273,-5.5262,-5.5284,-5.5244,-5.5312,-5.5229,-5.5322,-5.5255,-5.5278,-5.5277,-5.5282,-5.5286,-5.5195,-5.5337,-5.5573,-5.5597,-5.5291,-5.5288,-5.5286,0,-5.5106,-5.5179,-5.5264,-5.5277,-5.5285,-5.5325,-5.533,-5.534,-5.5366,-5.5394,-5.541,-5.5446,-5.5466,-5.5494,-5.5465,-5.5407,-5.5562,-5.5477,-5.5555,-5.5556,-5.5591,-5.5589,-5.5834,-5.5605,-5.5605,-5.5604,-5.5604,0,-5.5293,-5.5373,-5.5336,-5.5389,-5.5476,-5.5437,-5.5524,-5.5521,-5.5531,-5.5581,-5.5526,-5.5574,-5.5532,-5.5576,-5.5554,-5.5634,-5.5643,-5.5636,-5.5629,-5.5641,-5.5642,-5.5656,-5.5644,-5.561,-5.5609,-5.5608,-5.5607,0,-5.5487,-5.5466,-5.5554,-5.5554,-5.5556,-5.5621,-5.562,-5.5668,-5.5655,-5.5719,-5.5731,-5.571,-5.5759,-5.5733,-5.5783,-5.5767,-5.5871,-5.5849,-5.5867,-5.5862,-5.5941,-5.5935,-5.6204,-5.6237,-5.5987,-5.5989,-5.5991,0,-5.5608,-5.5668,-5.5675,-5.5705,-5.5714,-5.5763,-5.579,-5.5754,-5.5783,-5.5804,-5.5849,-5.5893,-5.5927,-5.6008,-5.5996,-5.6034,-5.6013,-5.6105,-5.6018,-5.6029,-5.6015,-5.6012,-5.6018,-5.6123,-5.6125,-5.6128,-5.613,0,-5.5826,-5.5812,-5.5853,-5.589,-5.5923,-5.595,-5.5972,-5.6,-5.5964,-5.6,-5.605,-5.6076,-5.6127,-5.6172,-5.6204,-5.6207,-5.6163,-5.6157,-5.6177,-5.6191,-5.6199,-5.6196,-5.5915,-5.6151,-5.6149,-5.6147,-5.6146,-5.6145,-5.5987,-5.6037,-5.6051,-5.6097,-5.6111,-5.6133,-5.6178,-5.6171,-5.6212,-5.6252,-5.6228,-5.6286,-5.6298,-5.6338,-5.6347,-5.6392,-5.6355,-5.6384,-5.6391,-5.6399,-5.6411,-5.6191,-5.6397,-5.6397,-5.6396,-5.6396,-5.6395,0,-5.6202,-5.6207,-5.6251,-5.6284,-5.6321,-5.6277,-5.6299,-5.6333,-5.6385,-5.6401,-5.6435,-5.6493,-5.6535,-5.6528,-5.6566,-5.6604,-5.6584,-5.6615,-5.6612,-5.6614,-5.6441,-5.642,-5.663,-5.663,-5.663,-5.663,-5.663,-5.663,-5.6318,-5.6401,-5.6389,-5.6478,-5.6482,-5.654,-5.6557,-5.6577,-5.6589,-5.6656,-5.6692,-5.6687,-5.6693,-5.6732,-5.6769,-5.6765,-5.6782,-5.6821,-5.681,-5.6649,-5.6626,-5.6604,-5.6584,-5.6825,-5.6825,-5.6979,-5.698,-5.6981]}]]